Flight Information

DEPARTURE
HAILEY, ID
Elevation:
5319
Runways:
13/31 - 7550x100 - ASPH-G
Active PE Departure:
13
Current PE ATIS:
B
Altimeter:
Remarks:
ATIS:
128.225 208-788-2108
Ground:
121.7
Tower:
HAILEY TOWER 125.6
DESTINATION
,
Elevation:
TPA:
1000 (est.)


6441.6 NM73° True-17° Var56° HDG

Flight Plan:
(click to file on line)

1. Type
2. Aircraft Identification
3. Aircraft Type / Special Equipment
4. True Airspeed
kts
5. Departure Airport
(ICAO code)
6. Arriving Airport
(ICAO code)
7. Cruising Altitude
ft
8. Alternate Airport
(ICAO code)
9. Route of Flight
10. Remarks


00:00:00 Departure ATIS: Destination ATIS:

Clearance Limit:
Route:
Altitude: Expect in minutes
Frequency:
Transponder: (7500 Hijack / 7600 Lost Comms / 7700 Emergency)


KSUN 190155Z 00000KT 10SM SKC M04/M09 A3026
Time: 2021-01-19T01:55:00Z
1611024117
Winds: calm
Visibility: 10.0 sm
Clouds (AGL): SKC
Temperature: -4.0 C
Dew Point: -9.0 C
Pressure: 30.259842 in Hgbr


Notes:

Data extracted from FAA Digital Chart Supplement. Effective: 0901Z Thursday, Dec 31, 2020 to 0901Z Thursday, Jan 28, 2021
Current ATIS data is provided courtisy of PilotEdge.